Time,TemperatureF,DewpointF,PressureIn,WindDirection,WindDirectionDegrees,WindSpeedMPH,WindSpeedGustMPH,Humidity,HourlyPrecipIn,Conditions,Clouds,dailyrainin,SoftwareType,DateUTC
2013-03-19 00:03:00,42.3,41.8,29.78,South,180,0.0,-999.0,98,-99.99,,,0.00,Acu-Link.com,2013-03-19 04:03:00,
2013-03-19 00:18:00,41.7,41.2,29.78,SSE,157,0.0,-999.0,98,-99.99,,,0.00,Acu-Link.com,2013-03-19 04:18:00,
2013-03-19 00:33:00,41.5,41.0,29.78,WNW,292,0.0,-999.0,98,-99.99,,,0.00,Acu-Link.com,2013-03-19 04:33:00,
2013-03-19 00:48:00,41.4,40.9,29.79,ESE,112,0.0,-999.0,98,-99.99,,,0.00,Acu-Link.com,2013-03-19 04:48:00,
2013-03-19 01:03:00,41.5,41.0,29.79,SW,225,0.0,-999.0,98,-99.99,,,0.00,Acu-Link.com,2013-03-19 05:03:00,
2013-03-19 01:18:00,41.7,41.2,29.79,SW,225,0.0,-999.0,98,-99.99,,,0.00,Acu-Link.com,2013-03-19 05:18:00,
2013-03-19 01:34:00,42.1,41.6,29.79,SW,225,0.0,-999.0,98,-99.99,,,0.00,Acu-Link.com,2013-03-19 05:34:00,
2013-03-19 01:49:00,42.3,41.8,29.79,South,180,0.0,-999.0,98,-99.99,,,0.00,Acu-Link.com,2013-03-19 05:49:00,
2013-03-19 02:04:00,42.1,41.6,29.79,East,90,0.0,-999.0,98,-99.99,,,0.00,Acu-Link.com,2013-03-19 06:04:00,
2013-03-19 02:19:00,42.1,41.6,29.79,SW,225,0.0,-999.0,98,-99.99,,,0.00,Acu-Link.com,2013-03-19 06:19:00,
2013-03-19 02:35:00,41.9,41.4,29.79,SW,225,0.0,-999.0,98,-99.99,,,0.00,Acu-Link.com,2013-03-19 06:35:00,
2013-03-19 02:50:00,41.9,41.4,29.78,SE,135,0.0,-999.0,98,-99.99,,,0.00,Acu-Link.com,2013-03-19 06:50:00,
2013-03-19 03:05:00,41.9,41.4,29.79,ENE,67,0.0,-999.0,98,-99.99,,,0.00,Acu-Link.com,2013-03-19 07:05:00,
2013-03-19 03:20:00,42.1,41.6,29.78,SSW,202,0.0,-999.0,98,-99.99,,,0.00,Acu-Link.com,2013-03-19 07:20:00,
2013-03-19 03:35:00,42.1,41.6,29.78,West,270,0.0,-999.0,98,-99.99,,,0.00,Acu-Link.com,2013-03-19 07:35:00,
2013-03-19 03:50:00,42.1,41.6,29.77,WSW,247,0.0,-999.0,98,-99.99,,,0.00,Acu-Link.com,2013-03-19 07:50:00,
2013-03-19 04:51:00,42.6,42.1,29.77,SSW,202,0.0,-999.0,98,-99.99,,,0.00,Acu-Link.com,2013-03-19 08:51:00,
2013-03-19 05:22:00,43.0,42.5,29.77,SSE,157,0.0,-999.0,98,-99.99,,,0.00,Acu-Link.com,2013-03-19 09:22:00,
2013-03-19 05:37:00,43.2,42.7,29.78,SSW,202,0.0,-999.0,98,-99.99,,,0.01,Acu-Link.com,2013-03-19 09:37:00,
2013-03-19 05:52:00,43.2,42.7,29.77,SSW,202,0.0,-999.0,98,-99.99,,,0.01,Acu-Link.com,2013-03-19 09:52:00,
2013-03-19 06:07:00,43.0,42.5,29.78,WNW,292,0.0,-999.0,98,-99.99,,,0.01,Acu-Link.com,2013-03-19 10:07:00,
2013-03-19 06:22:00,43.2,42.7,29.78,ENE,67,0.0,-999.0,98,-99.99,,,0.01,Acu-Link.com,2013-03-19 10:22:00,
2013-03-19 06:37:00,43.2,42.7,29.78,WNW,292,0.0,-999.0,98,-99.99,,,0.01,Acu-Link.com,2013-03-19 10:37:00,
2013-03-19 06:52:00,43.3,42.8,29.79,SW,225,0.0,-999.0,98,-99.99,,,0.01,Acu-Link.com,2013-03-19 10:52:00,
2013-03-19 07:07:00,43.5,43.0,29.80,SSE,157,0.0,-999.0,98,-99.99,,,0.01,Acu-Link.com,2013-03-19 11:07:00,
2013-03-19 07:23:00,43.5,43.0,29.81,NE,45,0.0,-999.0,98,-99.99,,,0.01,Acu-Link.com,2013-03-19 11:23:00,
2013-03-19 07:38:00,43.7,43.2,29.82,SW,225,0.0,-999.0,98,-99.99,,,0.01,Acu-Link.com,2013-03-19 11:38:00,
2013-03-19 07:53:00,43.9,43.4,29.82,West,270,0.0,-999.0,98,-99.99,,,0.01,Acu-Link.com,2013-03-19 11:53:00,
2013-03-19 08:08:00,44.4,43.9,29.82,SW,225,0.0,-999.0,98,-99.99,,,0.01,Acu-Link.com,2013-03-19 12:08:00,
2013-03-19 08:23:00,44.6,44.1,29.83,West,270,0.0,-999.0,98,-99.99,,,0.01,Acu-Link.com,2013-03-19 12:23:00,
2013-03-19 08:38:00,44.6,44.1,29.85,West,270,0.0,-999.0,98,-99.99,,,0.01,Acu-Link.com,2013-03-19 12:38:00,
2013-03-19 08:53:00,45.9,45.4,29.86,NE,45,0.0,-999.0,98,-99.99,,,0.01,Acu-Link.com,2013-03-19 12:53:00,
2013-03-19 09:08:00,47.8,47.3,29.85,South,180,0.0,-999.0,98,-99.99,,,0.01,Acu-Link.com,2013-03-19 13:08:00,
2013-03-19 09:23:00,50.9,50.4,29.85,NE,45,3.2,-999.0,98,-99.99,,,0.01,Acu-Link.com,2013-03-19 13:23:00,
2013-03-19 09:38:00,55.8,54.7,29.86,South,180,0.0,-999.0,96,-99.99,,,0.01,Acu-Link.com,2013-03-19 13:38:00,
2013-03-19 09:54:00,60.6,56.7,29.86,South,180,1.1,-999.0,87,-99.99,,,0.01,Acu-Link.com,2013-03-19 13:54:00,
2013-03-19 10:09:00,64.4,58.1,29.86,SW,225,0.0,-999.0,80,-99.99,,,0.01,Acu-Link.com,2013-03-19 14:09:00,
2013-03-19 10:24:00,55.9,50.5,29.85,WSW,247,2.2,-999.0,82,-99.99,,,0.01,Acu-Link.com,2013-03-19 14:24:00,
2013-03-19 10:39:00,57.4,51.3,29.85,ESE,112,2.2,-999.0,80,-99.99,,,0.01,Acu-Link.com,2013-03-19 14:39:00,
2013-03-19 10:54:00,59.4,48.0,29.86,WSW,247,2.7,-999.0,66,-99.99,,,0.01,Acu-Link.com,2013-03-19 14:54:00,
2013-03-19 11:09:00,61.0,45.2,29.86,East,90,2.7,-999.0,56,-99.99,,,0.01,Acu-Link.com,2013-03-19 15:09:00,
2013-03-19 11:25:00,62.1,40.5,29.87,WNW,292,3.2,-999.0,45,-99.99,,,0.01,Acu-Link.com,2013-03-19 15:25:00,
2013-03-19 11:40:00,63.1,36.4,29.87,West,270,3.7,-999.0,37,-99.99,,,0.01,Acu-Link.com,2013-03-19 15:40:00,
2013-03-19 11:55:00,64.0,32.8,29.87,WSW,247,2.2,-999.0,31,-99.99,,,0.01,Acu-Link.com,2013-03-19 15:55:00,
2013-03-19 12:10:00,64.4,33.9,29.87,West,270,2.7,-999.0,32,-99.99,,,0.01,Acu-Link.com,2013-03-19 16:10:00,
2013-03-19 12:25:00,65.7,34.2,29.87,West,270,3.7,-999.0,31,-99.99,,,0.01,Acu-Link.com,2013-03-19 16:25:00,
2013-03-19 12:40:00,66.6,38.8,29.88,West,270,2.2,-999.0,36,-99.99,,,0.01,Acu-Link.com,2013-03-19 16:40:00,
2013-03-19 12:55:00,65.7,35.0,29.88,NE,45,1.7,-999.0,32,-99.99,,,0.01,Acu-Link.com,2013-03-19 16:55:00,
2013-03-19 13:10:00,67.5,39.6,29.86,SSE,157,4.2,-999.0,36,-99.99,,,0.01,Acu-Link.com,2013-03-19 17:10:00,
2013-03-19 13:25:00,67.8,32.6,29.87,SW,225,3.2,-999.0,27,-99.99,,,0.01,Acu-Link.com,2013-03-19 17:25:00,
2013-03-19 13:41:00,68.2,32.9,29.87,WSW,247,2.7,-999.0,27,-99.99,,,0.01,Acu-Link.com,2013-03-19 17:41:00,
2013-03-19 13:56:00,68.9,33.5,29.87,NW,315,2.7,-999.0,27,-99.99,,,0.01,Acu-Link.com,2013-03-19 17:56:00,
2013-03-19 14:26:00,68.7,28.3,29.86,SW,225,3.2,-999.0,22,-99.99,,,0.01,Acu-Link.com,2013-03-19 18:26:00,
2013-03-19 14:41:00,70.3,30.7,29.85,West,270,3.2,-999.0,23,-99.99,,,0.01,Acu-Link.com,2013-03-19 18:41:00,
2013-03-19 14:56:00,70.3,31.8,29.85,SW,225,2.7,-999.0,24,-99.99,,,0.01,Acu-Link.com,2013-03-19 18:56:00,
2013-03-19 15:26:00,71.6,29.6,29.83,WNW,292,4.2,-999.0,21,-99.99,,,0.01,Acu-Link.com,2013-03-19 19:26:00,
2013-03-19 15:42:00,70.3,27.3,29.83,SSW,202,2.7,-999.0,20,-99.99,,,0.01,Acu-Link.com,2013-03-19 19:42:00,
2013-03-19 15:57:00,69.8,26.9,29.84,East,90,5.3,-999.0,20,-99.99,,,0.01,Acu-Link.com,2013-03-19 19:57:00,
2013-03-19 16:12:00,68.2,24.4,29.84,West,270,3.2,-999.0,19,-99.99,,,0.01,Acu-Link.com,2013-03-19 20:12:00,
2013-03-19 16:27:00,68.9,26.2,29.85,West,270,3.7,-999.0,20,-99.99,,,0.01,Acu-Link.com,2013-03-19 20:27:00,
2013-03-19 16:42:00,67.3,24.9,29.85,ESE,112,4.7,-999.0,20,-99.99,,,0.01,Acu-Link.com,2013-03-19 20:42:00,
2013-03-19 16:57:00,66.9,28.9,29.86,South,180,2.7,-999.0,24,-99.99,,,0.01,Acu-Link.com,2013-03-19 20:57:00,
2013-03-19 17:12:00,67.3,28.2,29.86,West,270,2.2,-999.0,23,-99.99,,,0.01,Acu-Link.com,2013-03-19 21:12:00,
2013-03-19 17:27:00,64.9,26.2,29.85,West,270,3.7,-999.0,23,-99.99,,,0.01,Acu-Link.com,2013-03-19 21:27:00,
2013-03-19 17:43:00,64.2,24.6,29.86,SSW,202,5.3,-999.0,22,-99.99,,,0.01,Acu-Link.com,2013-03-19 21:43:00,
2013-03-19 17:58:00,63.3,26.9,29.86,NNW,337,2.7,-999.0,25,-99.99,,,0.01,Acu-Link.com,2013-03-19 21:58:00,
2013-03-19 18:13:00,62.2,26.0,29.86,West,270,3.7,-999.0,25,-99.99,,,0.01,Acu-Link.com,2013-03-19 22:13:00,
2013-03-19 18:28:00,62.8,26.5,29.87,West,270,1.7,-999.0,25,-99.99,,,0.01,Acu-Link.com,2013-03-19 22:28:00,
2013-03-19 18:43:00,61.9,25.7,29.88,NW,315,0.0,-999.0,25,-99.99,,,0.01,Acu-Link.com,2013-03-19 22:43:00,
2013-03-19 18:58:00,59.9,27.6,29.88,West,270,1.1,-999.0,29,-99.99,,,0.01,Acu-Link.com,2013-03-19 22:58:00,
2013-03-19 19:13:00,58.6,28.1,29.88,West,270,1.1,-999.0,31,-99.99,,,0.01,Acu-Link.com,2013-03-19 23:13:00,
2013-03-19 19:29:00,57.2,28.4,29.89,South,180,2.2,-999.0,33,-99.99,,,0.01,Acu-Link.com,2013-03-19 23:29:00,
2013-03-19 19:44:00,55.8,27.9,29.90,NNE,22,0.0,-999.0,34,-99.99,,,0.01,Acu-Link.com,2013-03-19 23:44:00,
2013-03-19 19:59:00,54.0,28.3,29.90,West,270,0.0,-999.0,37,-99.99,,,0.01,Acu-Link.com,2013-03-19 23:59:00,
2013-03-19 20:15:00,52.2,28.6,29.91,NE,45,0.0,-999.0,40,-99.99,,,0.01,Acu-Link.com,2013-03-20 00:15:00,
2013-03-19 20:30:00,50.7,28.5,29.92,WNW,292,0.0,-999.0,42,-99.99,,,0.01,Acu-Link.com,2013-03-20 00:30:00,
2013-03-19 20:45:00,49.1,29.8,29.93,ENE,67,0.0,-999.0,47,-99.99,,,0.01,Acu-Link.com,2013-03-20 00:45:00,
2013-03-19 21:00:00,47.5,28.8,29.93,NNE,22,0.0,-999.0,48,-99.99,,,0.01,Acu-Link.com,2013-03-20 01:00:00,
2013-03-19 21:15:00,45.9,31.1,29.94,West,270,0.0,-999.0,56,-99.99,,,0.01,Acu-Link.com,2013-03-20 01:15:00,
2013-03-19 21:30:00,44.4,29.3,29.94,WNW,292,0.0,-999.0,55,-99.99,,,0.01,Acu-Link.com,2013-03-20 01:30:00,
2013-03-19 21:46:00,43.3,30.4,29.94,ENE,67,0.0,-999.0,60,-99.99,,,0.01,Acu-Link.com,2013-03-20 01:46:00,
2013-03-19 22:01:00,42.1,31.9,29.94,WNW,292,0.0,-999.0,67,-99.99,,,0.01,Acu-Link.com,2013-03-20 02:01:00,
2013-03-19 22:16:00,41.0,30.9,29.95,West,270,0.0,-999.0,67,-99.99,,,0.01,Acu-Link.com,2013-03-20 02:16:00,
2013-03-19 23:01:00,39.2,32.3,29.93,NNE,22,0.0,-999.0,76,-99.99,,,0.01,Acu-Link.com,2013-03-20 03:01:00,
2013-03-19 23:17:00,38.5,31.9,29.94,NNE,22,0.0,-999.0,77,-99.99,,,0.01,Acu-Link.com,2013-03-20 03:17:00,
2013-03-19 23:32:00,37.8,31.6,29.94,NNE,22,0.0,-999.0,78,-99.99,,,0.01,Acu-Link.com,2013-03-20 03:32:00,